RH
55 54 67 72 79 74 72 70 67 79 94 93 72 23 19 21 19 16 18 18 17 17 18 17 16 16 16 15 14 12 11 10 10 10 9 15 19 24 23 22 16 11 17
55 57 64 77 75 82 90 88 89 91 86 94 87 63 30 28 27 19 17 15 18 17 16 15 16 16 15 13 12 11 11 10 10 9 8 8 8 8 8 11 26 25 11
55 58 61 72 78 83 81 83 89 94 88 87 94 89 78 56 52 51 41 21 18 16 16 16 16 15 15 14 13 13 12 11 10 10 10 9 8 8 9 21 25 30 26
56 57 75 75 82 86 88 93 97 95 94 94 90 92 91 84 74 75 80 95 56 54 45 55 55 17 16 16 15 14 13 12 12 11 12 12 13 14 13 17 34 42 56
53 67 80 80 83 84 85 94 95 95 94 95 90 90 94 94 87 78 82 94 92 87 88 82 85 85 27 16 16 15 14 14 15 21 31 32 33 45 38 27 26 40 41
49 64 67 72 77 81 77 88 92 88 88 92 94 96 99 98 100 100 94 90 93 96 94 85 62 52 35 24 21 15 18 32 44 48 48 44 50 38 29 27 23 23 28
53 63 61 62 74 72 83 93 94 95 94 93 96 97 98 97 92 83 93 93 84 74 69 69 60 34 22 24 26 30 36 44 53 57 32 43 49 59 58 42 42 34 38
54 60 56 54 58 63 71 73 86 85 88 88 87 96 91 86 81 73 67 59 58 62 60 62 59 56 62 57 49 46 50 48 35 22 21 23 22 27 52 69 57 42 36
54 59 58 58 42 50 56 57 66 64 81 84 90 90 74 75 61 54 56 52 55 58 64 54 42 43 36 33 31 28 26 25 24 23 25 29 32 30 25 35 63 60 49
50 55 64 63 53 37 47 56 59 53 66 70 82 88 87 75 68 64 57 56 52 48 39 29 27 24 17 12 11 10 10 10 13 17 20 22 23 22 20 23 21 21 24
46 47 54 54 45 39 34 32 30 43 54 55 64 82 90 82 61 64 42 24 19 13 10 10 11 12 12 12 12 12 11 10 10 9 8 8 8 9 10 11 12 12 14
44 40 38 32 36 41 31 23 22 30 41 58 64 92 97 69 74 60 20 11 10 12 14 15 15 16 16 15 14 13 11 11 11 10 10 9 9 8 6 6 6 7 7
43 34 27 24 33 35 21 21 26 29 32 52 63 84 86 76 67 20 11 11 13 16 19 20 20 20 19 16 14 12 12 13 13 12 11 10 10 9 8 7 6 5 5
48 34 23 18 22 21 19 21 25 32 48 55 64 74 79 77 34 16 13 14 19 20 19 18 20 22 19 15 13 10 10 11 12 12 12 14 15 13 10 9 9 8 6
48 32 21 17 18 18 19 16 21 21 36 51 53 60 65 61 38 28 14 19 19 17 17 18 21 22 16 13 10 9 8 8 9 12 15 17 16 17 16 14 12 11 9
44 30 18 20 18 19 18 15 15 16 16 26 24 14 21 34 39 15 18 18 17 19 20 20 21 14 7 5 4 4 5 5 5 6 6 9 20 23 20 18 16 12 10
40 29 22 21 21 19 18 16 15 16 14 13 13 11 10 10 15 17 16 21 27 26 24 20 18 8 5 6 6 6 7 7 6 6 6 6 7 16 26 25 23 18 12
42 31 27 22 22 23 20 17 16 16 17 14 12 11 10 12 14 16 26 33 27 26 22 20 13 6 6 7 6 6 7 7 8 8 8 7 8 11 16 25 31 29 21
45 37 33 26 25 22 22 24 22 18 16 18 17 12 10 11 16 21 26 29 29 26 24 19 12 7 6 5 6 6 7 8 9 9 9 8 7 8 9 14 33 38 32
48 37 30 28 30 27 23 24 29 30 26 17 19 19 18 17 19 21 20 23 27 27 20 13 10 6 5 5 6 7 8 9 10 10 10 10 9 8 8 10 21 42 40
60 45 35 30 32 31 26 23 21 22 26 22 17 18 20 21 21 20 23 25 25 23 18 13 7 5 5 6 6 7 8 9 11 11 12 11 11 10 9 10 13 34 49
79 52 40 32 32 33 31 29 23 19 19 23 24 24 22 20 19 20 27 26 21 19 14 9 5 5 6 6 7 8 9 11 12 13 13 13 12 11 11 16 24 31 58
95 73 47 36 32 32 30 29 24 19 17 18 23 29 28 26 27 25 18 19 16 9 8 6 5 6 6 6 7 8 10 12 13 14 14 14 14 13 13 20 32 40 64
96 96 56 40 34 32 28 28 25 20 17 17 19 22 20 18 20 20 19 17 12 6 5 6 5 5 6 6 8 9 11 13 14 15 16 15 15 15 15 18 31 43 66
97 94 67 43 39 32 30 28 26 21 17 18 18 16 16 14 18 22 20 15 12 9 6 5 5 6 6 7 8 8 12 14 16 17 17 17 17 17 18 21 22 47 75
88 95 72 50 40 36 32 28 24 24 19 17 17 14 14 15 17 21 18 12 12 10 8 7 7 6 7 7 8 10 13 15 17 18 19 18 18 19 22 28 35 67 86
Wind_Speed
20 19 16 10 10 11 11 9 7 10 13 12 8 5 4 6 7 5 5 6 5 5 7 7 9 9 11 11 10 10 9 10 9 9 8 8 7 7 7 7 5 4 1
17 16 14 9 6 7 6 7 9 10 10 10 8 5 5 5 7 9 7 7 7 7 9 9 10 10 12 13 13 12 12 12 10 10 10 11 12 10 9 9 9 9 8
14 14 14 10 5 6 9 8 8 8 7 6 8 8 8 8 9 9 9 9 9 9 10 11 13 13 14 15 15 14 15 15 15 15 14 14 14 14 13 12 11 11 12
14 13 13 11 7 6 6 9 14 11 12 10 8 8 10 11 11 13 13 13 12 10 11 12 14 14 16 16 16 15 17 17 17 18 19 18 18 17 15 14 14 13 12
13 13 13 10 7 7 7 13 14 12 10 9 9 10 10 11 11 11 11 11 12 14 16 18 18 16 17 16 17 17 18 18 19 18 20 22 22 21 20 19 17 17 17
13 12 11 11 10 10 11 13 10 13 9 6 9 11 10 10 12 14 15 13 13 14 17 14 9 9 12 14 16 16 16 16 18 25 25 27 27 26 25 24 22 22 22
13 11 10 10 10 11 10 9 9 13 10 7 12 11 11 12 10 12 11 10 11 11 9 9 9 10 10 12 15 18 22 22 21 19 18 20 20 25 28 27 26 25 23
12 10 8 9 9 11 9 11 9 9 9 9 9 9 8 7 7 5 5 5 8 8 8 9 10 10 9 9 10 13 13 12 13 15 15 16 17 18 18 24 28 27 27
12 7 7 10 13 12 9 9 8 9 5 10 9 7 6 9 6 4 4 4 7 8 10 11 12 11 11 12 14 16 17 18 20 20 20 21 21 21 19 17 19 21 22
11 8 9 12 15 12 10 10 11 9 9 10 9 8 7 3 3 5 5 5 8 8 9 12 13 13 14 16 17 18 19 20 23 25 26 27 28 26 23 21 21 20 21
12 10 10 13 12 11 10 9 10 9 7 11 11 10 9 11 4 7 6 6 7 8 10 10 12 13 15 16 17 19 20 21 22 23 23 23 25 26 26 25 24 26 25
12 12 11 13 11 10 12 11 10 8 9 8 11 6 8 3 3 4 6 7 8 9 10 12 14 14 16 17 19 20 21 21 22 23 24 23 23 23 24 26 26 25 26
11 12 13 11 9 11 11 11 12 8 8 5 8 4 4 4 3 4 5 5 7 9 11 12 14 17 19 19 20 22 23 25 25 25 23 22 23 24 23 23 25 25 26
11 12 12 10 9 9 8 9 12 12 7 5 3 2 6 4 2 3 5 6 8 10 12 14 16 17 18 19 22 23 24 24 25 26 27 26 24 23 24 24 23 25 26
11 11 12 9 8 6 6 9 10 12 9 5 4 3 4 2 2 4 4 5 7 11 13 15 16 18 18 20 23 25 26 26 27 25 25 25 26 26 26 25 22 26 28
12 10 11 9 7 6 7 9 8 8 7 4 3 4 0 2 2 4 5 8 11 12 13 14 17 19 20 21 22 23 25 26 28 30 31 32 30 27 26 26 25 23 26
13 10 10 10 9 9 9 8 8 7 8 5 4 4 4 3 3 6 8 11 14 14 13 14 17 18 19 21 22 23 23 23 25 27 30 31 32 32 30 29 27 25 26
15 11 10 10 10 10 11 9 8 8 9 9 6 7 8 7 9 11 12 14 15 14 15 17 19 19 20 22 26 28 30 30 30 28 28 29 29 30 31 33 32 28 26
16 14 12 10 11 12 12 13 11 11 12 10 9 9 9 11 12 14 17 19 19 16 17 20 20 21 22 25 29 32 34 34 35 33 30 29 28 28 30 33 34 32 29
17 16 14 12 11 12 13 14 15 14 14 14 11 10 12 14 15 18 19 21 22 20 20 20 21 22 24 26 30 34 36 37 37 36 34 31 28 28 30 33 35 34 32
19 17 16 14 13 14 14 14 16 17 16 16 15 15 14 16 18 21 23 22 20 21 22 22 22 23 25 28 32 35 37 40 40 38 37 35 31 30 31 33 36 34 32
19 19 18 17 16 16 16 16 17 17 16 16 16 17 17 18 20 22 25 22 20 21 23 23 23 25 27 30 33 35 38 39 40 40 38 37 35 33 33 34 34 34 33
19 18 17 18 18 19 19 18 18 17 15 15 15 17 18 20 21 24 22 21 22 21 22 25 25 26 29 31 34 36 38 40 41 41 41 40 37 34 34 34 33 33 33
25 21 18 19 19 21 21 20 19 18 16 16 16 17 19 22 21 20 19 22 23 22 24 27 27 28 31 34 36 39 41 42 42 43 42 42 39 35 35 35 35 34 32
28 21 17 21 21 22 22 23 21 19 18 17 17 18 19 21 19 18 21 24 25 26 28 30 31 31 32 36 38 40 41 41 42 42 42 41 41 37 36 37 37 34 31
30 23 21 23 24 23 24 24 23 21 20 19 19 19 20 20 20 19 22 25 27 29 30 32 33 34 35 39 42 42 43 43 43 44 45 43 42 38 37 36 34 31 29
Wind_Direction
357 355 355 358 19 19 22 16 15 18 0 344 342 6 10 353 348 344 337 335 330 318 302 296 294 296 296 292 295 296 294 294 301 308 310 307 307 305 311 314 328 314 275
354 348 341 353 3 14 20 6 352 344 351 358 348 328 316 316 327 334 325 312 308 301 296 290 287 291 286 289 291 292 294 291 295 296 295 294 292 295 304 313 309 302 297
351 340 329 326 324 353 14 359 353 335 315 327 336 323 302 297 297 314 320 320 303 291 287 291 291 289 289 289 287 289 291 295 298 297 295 290 287 285 289 291 293 284 270
347 343 332 325 317 320 340 339 341 334 321 314 313 310 321 307 288 295 304 308 296 298 301 294 289 285 285 282 285 288 293 295 296 297 299 297 294 289 283 279 279 278 275
350 347 349 329 312 307 319 336 330 328 324 315 315 316 315 314 314 313 307 311 308 299 298 293 285 291 269 286 291 294 292 292 295 301 304 300 293 289 284 279 272 265 269
353 351 356 349 336 318 304 321 333 332 324 328 335 325 317 312 310 321 319 322 321 318 323 317 317 293 279 289 294 292 287 289 294 298 298 297 287 279 278 276 271 270 269
356 357 353 344 341 348 348 329 327 330 326 317 332 330 325 320 314 303 302 316 326 336 345 354 331 315 301 295 293 290 285 287 292 288 297 295 295 286 273 270 271 270 266
1 9 2 11 7 0 7 2 352 354 340 343 336 334 1 354 338 354 346 3 353 359 359 4 1 349 346 339 328 313 310 298 292 289 294 294 296 301 294 271 264 265 268
359 1 357 356 347 344 347 343 356 344 333 330 335 346 25 21 24 23 13 358 349 349 346 348 344 343 331 327 321 314 311 307 301 296 290 287 289 291 296 289 272 263 265
352 349 325 324 337 349 344 331 319 325 306 316 306 284 282 10 346 352 3 332 343 348 350 347 344 339 335 332 325 319 314 305 297 292 290 291 288 287 283 280 278 272 266
348 348 332 328 330 344 353 346 342 346 319 304 310 298 285 268 337 338 345 356 6 2 10 4 356 350 347 338 332 329 324 318 312 305 298 291 288 288 286 279 272 270 266
346 342 340 331 331 330 334 336 340 339 345 302 307 299 317 348 358 349 351 10 20 26 16 7 355 347 340 332 329 325 323 322 318 314 310 307 300 291 286 284 281 275 272
337 341 336 326 327 327 334 5 5 352 324 308 289 265 334 354 355 344 11 23 26 18 11 357 347 341 335 327 326 326 327 329 327 324 319 313 307 302 295 287 283 279 275
327 333 331 325 324 331 336 5 14 8 13 18 320 257 293 301 322 17 9 12 17 3 345 338 339 336 328 326 325 325 326 325 322 321 321 321 318 311 302 296 291 285 276
318 325 328 326 335 340 331 3 10 7 13 23 329 295 282 261 252 332 358 359 342 334 329 333 333 330 328 328 331 331 332 331 329 324 316 312 312 312 309 305 296 288 283
309 311 323 326 334 333 337 354 355 354 357 30 341 318 222 205 251 312 336 326 324 324 327 328 328 327 326 329 333 333 332 329 328 326 323 320 315 312 309 305 301 290 280
299 305 317 319 323 327 321 337 332 336 333 332 325 325 319 291 295 308 312 320 317 316 320 320 316 323 335 331 332 336 333 329 325 322 319 317 313 310 309 306 304 295 286
294 292 295 306 308 315 314 311 307 311 318 319 305 302 300 285 296 306 316 319 315 315 314 313 317 328 332 336 339 337 336 334 332 328 322 320 314 309 305 303 302 298 289
292 286 283 292 300 306 301 299 298 297 293 298 304 303 293 287 300 310 315 317 320 311 311 310 316 323 329 337 337 337 335 334 333 330 327 321 317 311 303 299 296 294 290
289 289 288 286 292 305 306 296 292 293 290 281 282 289 294 295 301 304 305 310 313 305 305 308 314 321 330 335 336 334 332 332 332 332 329 325 318 312 304 296 293 290 287
290 285 286 286 289 300 301 302 302 290 285 282 279 284 287 292 296 299 300 301 302 299 302 308 316 324 327 331 333 330 329 330 329 330 330 326 319 309 301 295 292 291 285
280 281 283 289 290 295 293 299 306 299 284 277 279 286 290 292 290 290 292 295 295 297 302 312 316 321 324 326 327 328 328 327 328 329 330 327 320 312 301 296 292 288 285
274 276 279 284 290 292 292 297 304 302 296 286 284 289 289 285 285 288 291 295 295 299 306 307 313 317 318 321 323 324 325 326 329 328 328 327 323 315 305 297 294 287 283
275 282 275 278 285 288 292 294 300 300 295 293 289 289 289 284 284 291 293 291 293 301 303 304 308 311 314 318 319 324 325 326 328 328 328 327 324 317 306 299 295 291 282
270 267 266 275 278 285 289 292 295 295 294 293 289 288 288 287 286 288 289 290 292 298 302 304 306 308 310 312 316 318 319 324 326 328 327 326 323 316 307 301 298 293 283
277 284 265 268 277 282 286 290 290 291 289 287 287 287 290 290 288 288 288 291 296 300 301 301 304 305 306 308 310 315 321 326 329 329 328 326 322 316 310 307 301 294 286